Location: *
(45.8589°N, 4.7139°E)
Time: 20:55:47
(UTC+00:00)

Cosmos 1726 - Pass Details

Date: 09 April 2020
Orbit: 481 x 500 km, 82.5° (Epoch: 24 May)

Event Time Altitude Azimuth Distance (km) Brightness Sun altitude
Rises 19:00:31 0° 194° (SSW) 2,581 5.7 -7.5°
Reaches altitude 10° 19:02:38 10° 197° (SSW) 1,702 4.8 -7.9°
Maximum altitude 19:06:20 67° 280° (W) 548 2.6 -8.5°
Drops below altitude 10° 19:10:04 10° 4° (N) 1,711 5.1 -9.1°
Sets 19:12:12 0° 7° (N) 2,597 6.0 -9.4°
